JBU470 KFLL-KBOS

Flight info

Callsign JBU470
Flight time 2h 36m
Altitude 33000
Route FEALX2 ETECK GRUBR Y299 SEELO WAALT/N0454F350 Q131 EARZZ JAMIE CONFR Q133 JFK ROBUC3
Aircraft A321/M-SDE3FGHIRWY/LB1

Departure

Time 2026-05-08 01:57
Airport Fort Lauderdale Hollywood International Airport (KFLL)

Arrival

Time 2026-05-08 04:34
Airport Boston Logan International Airport (KBOS)
Time Latitude Longitude Altitude Speed Heading
2026-05-08 01:05 26.06924 -80.14141 7 ft 0 kts 297°
2026-05-08 01:44 26.06918 -80.14129 16 ft 4 kts 291°
2026-05-08 01:45 26.06912 -80.14102 16 ft 4 kts 259°
2026-05-08 01:45 26.06921 -80.14083 16 ft 4 kts 188°
2026-05-08 01:45 26.06929 -80.14082 16 ft 0 kts 180°
2026-05-08 01:49 26.06928 -80.14082 16 ft 1 kts 180°
2026-05-08 01:49 26.06917 -80.14082 16 ft 3 kts 180°
2026-05-08 01:49 26.06876 -80.14084 16 ft 8 kts 185°
2026-05-08 01:50 26.06828 -80.14118 16 ft 9 kts 238°
2026-05-08 01:50 26.06817 -80.14185 16 ft 9 kts 269°
2026-05-08 01:50 26.06798 -80.14256 16 ft 10 kts 237°
2026-05-08 01:50 26.06771 -80.14330 15 ft 11 kts 266°
2026-05-08 01:51 26.06771 -80.14416 15 ft 11 kts 271°
2026-05-08 01:51 26.06770 -80.14506 17 ft 12 kts 263°
2026-05-08 01:51 26.06765 -80.14601 15 ft 13 kts 270°
2026-05-08 01:51 26.06766 -80.14700 15 ft 13 kts 270°
2026-05-08 01:52 26.06766 -80.14768 15 ft 14 kts 270°
2026-05-08 01:52 26.06767 -80.14875 15 ft 14 kts 270°
2026-05-08 01:52 26.06768 -80.15021 16 ft 14 kts 269°
2026-05-08 01:52 26.06768 -80.15134 16 ft 15 kts 270°
2026-05-08 01:53 26.06768 -80.15250 16 ft 15 kts 271°
2026-05-08 01:53 26.06770 -80.15370 16 ft 16 kts 270°
2026-05-08 01:53 26.06769 -80.15452 16 ft 16 kts 270°
2026-05-08 01:53 26.06739 -80.15529 16 ft 8 kts 208°
2026-05-08 01:54 26.06701 -80.15570 16 ft 8 kts 252°
2026-05-08 01:54 26.06698 -80.15634 18 ft 9 kts 270°
2026-05-08 01:54 26.06699 -80.15703 16 ft 9 kts 271°
2026-05-08 01:54 26.06698 -80.15772 16 ft 7 kts 266°
2026-05-08 01:55 26.06672 -80.15815 17 ft 7 kts 210°
2026-05-08 01:55 26.06627 -80.15821 19 ft 6 kts 175°
2026-05-08 01:55 26.06597 -80.15803 19 ft 4 kts 129°
2026-05-08 01:55 26.06590 -80.15772 19 ft 4 kts 96°
2026-05-08 01:56 26.06590 -80.15764 19 ft 0 kts 93°
2026-05-08 01:56 26.06588 -80.15684 21 ft 41 kts 90°
2026-05-08 01:56 26.06585 -80.15052 19 ft 120 kts 90°
2026-05-08 01:57 26.06580 -80.13894 91 ft 176 kts 91°
2026-05-08 01:57 26.06565 -80.12490 820 ft 181 kts 90°
2026-05-08 01:57 26.06593 -80.11086 1525 ft 187 kts 90°
2026-05-08 01:57 26.06623 -80.09564 1679 ft 206 kts 90°
2026-05-08 01:58 26.06648 -80.07916 1808 ft 226 kts 90°
2026-05-08 01:58 26.06669 -80.06074 1934 ft 250 kts 90°
2026-05-08 01:58 26.06688 -80.04093 2369 ft 260 kts 90°
2026-05-08 01:58 26.06730 -80.02061 2954 ft 265 kts 84°
2026-05-08 01:59 26.07297 -80.00108 3532 ft 270 kts 58°
2026-05-08 01:59 26.08456 -79.98440 4155 ft 274 kts 51°
2026-05-08 01:59 26.09680 -79.96800 4775 ft 277 kts 50°
2026-05-08 01:59 26.10920 -79.95135 5361 ft 281 kts 50°
2026-05-08 02:00 26.12160 -79.93469 5944 ft 285 kts 50°
2026-05-08 02:00 26.13431 -79.91759 6564 ft 287 kts 49°
2026-05-08 02:00 26.14708 -79.90040 7183 ft 289 kts 49°
2026-05-08 02:00 26.15989 -79.88303 7772 ft 292 kts 50°
2026-05-08 02:01 26.17228 -79.86496 8349 ft 295 kts 52°
2026-05-08 02:01 26.17355 -79.86303 8406 ft 295 kts 52°
2026-05-08 02:01 26.18527 -79.84504 8926 ft 298 kts 53°
2026-05-08 02:01 26.19730 -79.82619 9456 ft 300 kts 53°
2026-05-08 02:02 26.20944 -79.80717 9969 ft 302 kts 53°
2026-05-08 02:02 26.22179 -79.78792 10343 ft 312 kts 53°
2026-05-08 02:02 26.23477 -79.76779 10473 ft 328 kts 53°
2026-05-08 02:02 26.24849 -79.74662 10602 ft 344 kts 53°
2026-05-08 02:03 26.26266 -79.72481 10760 ft 358 kts 53°
2026-05-08 02:03 26.27745 -79.70212 11157 ft 364 kts 53°
2026-05-08 02:03 26.29262 -79.67938 11621 ft 366 kts 49°
2026-05-08 02:03 26.31014 -79.65867 12107 ft 368 kts 45°
2026-05-08 02:04 26.32809 -79.63811 12594 ft 371 kts 45°
2026-05-08 02:04 26.34614 -79.61742 13070 ft 374 kts 44°
2026-05-08 02:04 26.36420 -79.59668 13550 ft 376 kts 44°
2026-05-08 02:04 26.38254 -79.57559 14030 ft 379 kts 44°
2026-05-08 02:05 26.40100 -79.55436 14504 ft 382 kts 44°
2026-05-08 02:05 26.41957 -79.53296 14973 ft 384 kts 44°
2026-05-08 02:05 26.43823 -79.51145 15442 ft 387 kts 44°
2026-05-08 02:05 26.45701 -79.48980 15891 ft 390 kts 43°
2026-05-08 02:06 26.47567 -79.46829 16350 ft 392 kts 43°
2026-05-08 02:06 26.49473 -79.44628 16815 ft 395 kts 43°
2026-05-08 02:06 26.51391 -79.42413 17272 ft 398 kts 43°
2026-05-08 02:06 26.53326 -79.40177 17731 ft 400 kts 43°
2026-05-08 02:07 26.54635 -79.38717 18018 ft 401 kts 39°
2026-05-08 02:07 26.57649 -79.36296 18603 ft 400 kts 28°
2026-05-08 02:07 26.60039 -79.34674 19039 ft 403 kts 28°
2026-05-08 02:07 26.62448 -79.33044 19458 ft 406 kts 27°
2026-05-08 02:08 26.64872 -79.31400 19868 ft 408 kts 27°
2026-05-08 02:08 26.67282 -79.29765 20266 ft 412 kts 27°
2026-05-08 02:08 26.69736 -79.28098 20664 ft 414 kts 27°
2026-05-08 02:08 26.72212 -79.26413 21037 ft 417 kts 27°
2026-05-08 02:09 26.74706 -79.24716 21393 ft 420 kts 27°
2026-05-08 02:09 26.77208 -79.23012 21747 ft 422 kts 27°
2026-05-08 02:09 26.79732 -79.21292 22089 ft 425 kts 27°
2026-05-08 02:09 26.82271 -79.19561 22416 ft 428 kts 27°
2026-05-08 02:10 26.84784 -79.17846 22723 ft 429 kts 27°
2026-05-08 02:10 26.87343 -79.16094 23033 ft 432 kts 27°
2026-05-08 02:10 26.89918 -79.14330 23322 ft 435 kts 27°
2026-05-08 02:10 26.92506 -79.12556 23609 ft 437 kts 27°
2026-05-08 02:11 26.95114 -79.10768 23897 ft 439 kts 27°
2026-05-08 02:11 26.97733 -79.08975 24180 ft 441 kts 27°
2026-05-08 02:11 27.00356 -79.07179 24461 ft 443 kts 27°
2026-05-08 02:11 27.02994 -79.05373 24743 ft 445 kts 27°
2026-05-08 02:12 27.05639 -79.03562 25009 ft 447 kts 27°
2026-05-08 02:12 27.08302 -79.01736 25267 ft 449 kts 27°
2026-05-08 02:12 27.10974 -78.99905 25538 ft 451 kts 27°
2026-05-08 02:12 27.13622 -78.98087 25811 ft 453 kts 27°
2026-05-08 02:13 27.16325 -78.96227 26071 ft 454 kts 27°
2026-05-08 02:13 27.19035 -78.94359 26336 ft 456 kts 27°
2026-05-08 02:13 27.21746 -78.92485 26586 ft 458 kts 27°
2026-05-08 02:13 27.24471 -78.90601 26842 ft 460 kts 27°
2026-05-08 02:14 27.27207 -78.88714 27086 ft 462 kts 27°
2026-05-08 02:14 27.29958 -78.86819 27342 ft 464 kts 26°
2026-05-08 02:14 27.32712 -78.84923 27589 ft 465 kts 27°
2026-05-08 02:14 27.35479 -78.83014 27833 ft 467 kts 27°
2026-05-08 02:15 27.38291 -78.81191 28056 ft 465 kts 20°
2026-05-08 02:15 27.41249 -78.79879 28265 ft 460 kts 11°
2026-05-08 02:15 27.44370 -78.79122 28482 ft 455 kts
2026-05-08 02:15 27.47513 -78.78681 28705 ft 456 kts
2026-05-08 02:16 27.50671 -78.78232 28916 ft 459 kts
2026-05-08 02:16 27.53847 -78.77769 29143 ft 460 kts
2026-05-08 02:16 27.57032 -78.77297 29379 ft 462 kts
2026-05-08 02:16 27.60228 -78.76820 29612 ft 464 kts
2026-05-08 02:17 27.63432 -78.76345 29828 ft 465 kts
2026-05-08 02:17 27.66638 -78.75872 30152 ft 464 kts
2026-05-08 02:17 27.69845 -78.75399 30482 ft 463 kts
2026-05-08 02:17 27.73044 -78.74927 30797 ft 462 kts
2026-05-08 02:18 27.76189 -78.74461 31091 ft 462 kts
2026-05-08 02:18 27.79378 -78.73989 31379 ft 461 kts
2026-05-08 02:18 27.82559 -78.73517 31674 ft 460 kts
2026-05-08 02:18 27.85736 -78.73048 31968 ft 460 kts
2026-05-08 02:19 27.88907 -78.72582 32254 ft 459 kts
2026-05-08 02:19 27.92073 -78.72122 32523 ft 459 kts
2026-05-08 02:19 27.95236 -78.71663 32789 ft 458 kts
2026-05-08 02:19 27.98396 -78.71198 33056 ft 457 kts
2026-05-08 02:20 28.01550 -78.70732 33318 ft 457 kts
2026-05-08 02:20 28.04659 -78.70272 33561 ft 456 kts
2026-05-08 02:20 28.07809 -78.69807 33787 ft 456 kts
2026-05-08 02:20 28.10961 -78.69342 34019 ft 456 kts
2026-05-08 02:21 28.14109 -78.68878 34260 ft 456 kts
2026-05-08 02:21 28.17255 -78.68412 34503 ft 455 kts
2026-05-08 02:21 28.20387 -78.67946 34741 ft 454 kts
2026-05-08 02:21 28.23522 -78.67479 34948 ft 454 kts
2026-05-08 02:22 28.29792 -78.66548 35017 ft 454 kts
2026-05-08 02:22 28.36064 -78.65626 35018 ft 454 kts
2026-05-08 02:23 28.42285 -78.64712 35010 ft 453 kts
2026-05-08 02:23 28.48548 -78.63775 35010 ft 453 kts
2026-05-08 02:24 28.54810 -78.62833 35002 ft 453 kts
2026-05-08 02:24 28.61065 -78.61889 35002 ft 453 kts
2026-05-08 02:25 28.67323 -78.60959 35000 ft 453 kts
2026-05-08 02:25 28.73580 -78.60026 34998 ft 453 kts
2026-05-08 02:26 28.79843 -78.59084 34999 ft 454 kts
2026-05-08 02:26 28.86082 -78.58151 34998 ft 454 kts
2026-05-08 02:27 28.92358 -78.57216 35011 ft 454 kts
2026-05-08 02:27 28.98634 -78.56272 35005 ft 455 kts
2026-05-08 02:28 29.04918 -78.55332 35002 ft 455 kts
2026-05-08 02:28 29.11160 -78.54392 35003 ft 455 kts
2026-05-08 02:29 29.17449 -78.53444 35008 ft 455 kts
2026-05-08 02:29 29.23744 -78.52498 35016 ft 455 kts
2026-05-08 02:30 29.30041 -78.51540 35015 ft 455 kts
2026-05-08 02:30 29.36281 -78.50592 35009 ft 455 kts 360°
2026-05-08 02:31 29.42561 -78.49638 35008 ft 455 kts 360°
2026-05-08 02:31 29.48833 -78.48861 35006 ft 448 kts 352°
2026-05-08 02:32 29.54974 -78.49411 35005 ft 441 kts 347°
2026-05-08 02:32 29.61099 -78.50081 35003 ft 441 kts 347°
2026-05-08 02:33 29.67212 -78.50742 35003 ft 441 kts 347°
2026-05-08 02:33 29.73331 -78.51400 35005 ft 441 kts 347°
2026-05-08 02:34 29.79415 -78.52060 35005 ft 441 kts 347°
2026-05-08 02:34 29.85569 -78.52729 35006 ft 441 kts 347°
2026-05-08 02:35 29.91641 -78.53386 35011 ft 441 kts 347°
2026-05-08 02:35 29.97762 -78.54054 35014 ft 441 kts 347°
2026-05-08 02:36 30.03879 -78.54722 35004 ft 441 kts 346°
2026-05-08 02:36 30.09989 -78.55380 35007 ft 441 kts 346°
2026-05-08 02:37 30.16104 -78.55749 35000 ft 451 kts 357°
2026-05-08 02:37 30.22388 -78.54870 34998 ft 454 kts 359°
2026-05-08 02:38 30.28661 -78.53958 34995 ft 454 kts 359°
2026-05-08 02:38 30.34947 -78.53057 34982 ft 454 kts 359°
2026-05-08 02:39 30.41193 -78.52157 34978 ft 454 kts 358°
2026-05-08 02:39 30.47481 -78.51213 34978 ft 456 kts 359°
2026-05-08 02:40 30.52706 -78.50353 34981 ft 457 kts 360°
2026-05-08 02:40 30.59007 -78.49296 34985 ft 457 kts 359°
2026-05-08 02:41 30.65299 -78.48272 34986 ft 456 kts 359°
2026-05-08 02:41 30.71596 -78.47257 34988 ft 457 kts 359°
2026-05-08 02:42 30.77865 -78.46235 34987 ft 457 kts 359°
2026-05-08 02:42 30.84185 -78.45206 34988 ft 458 kts 359°
2026-05-08 02:43 30.90495 -78.44182 34985 ft 458 kts 359°
2026-05-08 02:43 30.96759 -78.43154 34983 ft 458 kts 359°
2026-05-08 02:44 31.03073 -78.42124 34979 ft 458 kts 359°
2026-05-08 02:44 31.09392 -78.41095 34976 ft 458 kts 359°
2026-05-08 02:45 31.15707 -78.40058 34971 ft 458 kts 359°
2026-05-08 02:45 31.22033 -78.39010 34970 ft 458 kts 359°
2026-05-08 02:46 31.28348 -78.37969 34970 ft 458 kts 359°
2026-05-08 02:46 31.34633 -78.36936 34968 ft 458 kts 359°
2026-05-08 02:47 31.40953 -78.35904 34963 ft 458 kts 359°
2026-05-08 02:47 31.47276 -78.34857 34960 ft 458 kts 359°
2026-05-08 02:48 31.53560 -78.33812 34959 ft 458 kts 359°
2026-05-08 02:48 31.59892 -78.32761 34963 ft 459 kts 359°
2026-05-08 02:49 31.66219 -78.31712 34964 ft 459 kts 359°
2026-05-08 02:49 31.72521 -78.30677 34968 ft 460 kts 359°
2026-05-08 02:50 31.78866 -78.29626 34962 ft 460 kts 359°
2026-05-08 02:50 31.85208 -78.28570 34962 ft 460 kts 359°
2026-05-08 02:51 31.91511 -78.27513 34962 ft 460 kts 359°
2026-05-08 02:51 31.97850 -78.26455 34962 ft 460 kts 359°
2026-05-08 02:52 32.04199 -78.25376 34961 ft 461 kts
2026-05-08 02:52 32.10536 -78.24058 34959 ft 463 kts
2026-05-08 02:53 32.16841 -78.22617 34956 ft 464 kts
2026-05-08 02:53 32.23188 -78.21193 34954 ft 463 kts
2026-05-08 02:54 32.29494 -78.19833 34954 ft 463 kts
2026-05-08 02:54 32.35842 -78.18480 34955 ft 463 kts
2026-05-08 02:55 32.45372 -78.16423 34956 ft 464 kts
2026-05-08 02:56 32.51725 -78.15045 34948 ft 464 kts
2026-05-08 02:56 32.58049 -78.13664 34940 ft 464 kts
2026-05-08 02:57 32.64406 -78.12272 34937 ft 464 kts
2026-05-08 02:57 32.70765 -78.10886 34935 ft 464 kts
2026-05-08 02:58 32.77132 -78.09507 34930 ft 465 kts
2026-05-08 02:58 32.83461 -78.08129 34929 ft 466 kts 360°
2026-05-08 02:59 32.89688 -78.06752 34923 ft 466 kts
2026-05-08 02:59 32.96070 -78.05342 34923 ft 466 kts 359°
2026-05-08 03:00 33.02458 -78.03948 34920 ft 467 kts 359°
2026-05-08 03:00 33.08875 -78.02538 34917 ft 468 kts 359°
2026-05-08 03:01 33.15254 -78.01126 34921 ft 469 kts 359°
2026-05-08 03:01 33.21680 -77.99711 34923 ft 470 kts 359°
2026-05-08 03:02 33.28120 -77.98288 34922 ft 471 kts 359°
2026-05-08 03:02 33.34564 -77.96872 34922 ft 471 kts 359°
2026-05-08 03:03 33.41024 -77.95440 34922 ft 472 kts 359°
2026-05-08 03:03 33.47482 -77.94003 34920 ft 472 kts 358°
2026-05-08 03:04 33.53914 -77.92575 34925 ft 473 kts 358°
2026-05-08 03:04 33.60341 -77.91137 34934 ft 468 kts 356°
2026-05-08 03:05 33.66772 -77.89698 34929 ft 471 kts 357°
2026-05-08 03:05 33.73240 -77.88253 34932 ft 473 kts 357°
2026-05-08 03:06 33.79714 -77.86799 34945 ft 473 kts 357°
2026-05-08 03:06 33.86152 -77.85248 34946 ft 475 kts 358°
2026-05-08 03:07 33.92629 -77.83581 34946 ft 476 kts 359°
2026-05-08 03:07 33.99114 -77.81910 34954 ft 476 kts 358°
2026-05-08 03:08 34.05595 -77.80276 34958 ft 476 kts 358°
2026-05-08 03:08 34.12089 -77.78642 34965 ft 476 kts 358°
2026-05-08 03:09 34.18569 -77.77001 34971 ft 476 kts 358°
2026-05-08 03:09 34.25053 -77.75355 34977 ft 476 kts 358°
2026-05-08 03:10 34.31494 -77.73724 34978 ft 476 kts 358°
2026-05-08 03:10 34.37978 -77.72072 34982 ft 476 kts 358°
2026-05-08 03:11 34.44480 -77.70410 34987 ft 476 kts 358°
2026-05-08 03:11 34.50955 -77.68763 34993 ft 475 kts 358°
2026-05-08 03:12 34.57377 -77.66682 35000 ft 497 kts 11°
2026-05-08 03:12 34.63675 -77.62976 34995 ft 504 kts 14°
2026-05-08 03:13 34.69970 -77.59193 35003 ft 505 kts 13°
2026-05-08 03:13 34.76282 -77.55410 34998 ft 505 kts 13°
2026-05-08 03:14 34.82602 -77.51626 34993 ft 506 kts 13°
2026-05-08 03:14 34.88931 -77.47828 35002 ft 506 kts 13°
2026-05-08 03:15 34.95253 -77.44036 34996 ft 506 kts 13°
2026-05-08 03:15 35.01534 -77.40256 34993 ft 507 kts 13°
2026-05-08 03:16 35.07861 -77.36444 34996 ft 507 kts 13°
2026-05-08 03:16 35.14193 -77.32626 35000 ft 508 kts 13°
2026-05-08 03:17 35.20543 -77.28771 35002 ft 509 kts 13°
2026-05-08 03:17 35.26882 -77.24925 35010 ft 508 kts 13°
2026-05-08 03:18 35.33232 -77.21077 35000 ft 508 kts 13°
2026-05-08 03:18 35.39567 -77.17223 35005 ft 509 kts 13°
2026-05-08 03:19 35.45910 -77.13352 35001 ft 509 kts 13°
2026-05-08 03:19 35.52255 -77.09479 34999 ft 509 kts 13°
2026-05-08 03:20 35.58597 -77.05607 34995 ft 509 kts 13°
2026-05-08 03:20 35.64914 -77.01740 35002 ft 510 kts 13°
2026-05-08 03:21 35.71256 -76.97835 34997 ft 510 kts 13°
2026-05-08 03:21 35.77612 -76.93917 35001 ft 510 kts 13°
2026-05-08 03:22 35.83958 -76.90013 34994 ft 510 kts 13°
2026-05-08 03:22 35.90276 -76.86131 35001 ft 509 kts 13°
2026-05-08 03:23 35.96664 -76.82494 34998 ft 501 kts
2026-05-08 03:23 36.03120 -76.79277 34995 ft 498 kts
2026-05-08 03:24 36.09588 -76.76104 35005 ft 501 kts
2026-05-08 03:24 36.16046 -76.72800 35005 ft 503 kts
2026-05-08 03:25 36.22490 -76.69418 35004 ft 503 kts
2026-05-08 03:25 36.28895 -76.66066 35010 ft 502 kts
2026-05-08 03:26 36.35331 -76.62714 35002 ft 501 kts
2026-05-08 03:26 36.41784 -76.59362 35002 ft 501 kts
2026-05-08 03:27 36.48218 -76.56014 34999 ft 502 kts
2026-05-08 03:27 36.54637 -76.52653 35002 ft 502 kts
2026-05-08 03:28 36.61079 -76.49275 34999 ft 502 kts
2026-05-08 03:28 36.66431 -76.46466 35015 ft 501 kts
2026-05-08 03:29 36.72812 -76.43111 35004 ft 500 kts
2026-05-08 03:29 36.79232 -76.39729 34997 ft 500 kts
2026-05-08 03:30 36.88849 -76.34660 34997 ft 500 kts
2026-05-08 03:31 37.01633 -76.27890 34981 ft 500 kts
2026-05-08 03:32 37.11254 -76.22772 34982 ft 500 kts
2026-05-08 03:32 37.17582 -76.19414 34980 ft 499 kts
2026-05-08 03:33 37.23967 -76.16011 34977 ft 499 kts
2026-05-08 03:33 37.30364 -76.12591 34979 ft 499 kts
2026-05-08 03:34 37.36750 -76.09174 34980 ft 499 kts
2026-05-08 03:34 37.43134 -76.05752 34980 ft 498 kts
2026-05-08 03:35 37.49514 -76.02319 34981 ft 498 kts
2026-05-08 03:35 37.55848 -75.98897 34981 ft 498 kts
2026-05-08 03:36 37.62027 -75.95169 34968 ft 515 kts 20°
2026-05-08 03:36 37.68057 -75.90189 34974 ft 518 kts 21°
2026-05-08 03:37 37.74085 -75.85184 34975 ft 518 kts 21°
2026-05-08 03:37 37.80114 -75.80179 34972 ft 517 kts 21°
2026-05-08 03:38 37.86096 -75.75203 34978 ft 519 kts 21°
2026-05-08 03:38 37.92124 -75.70174 34978 ft 519 kts 21°
2026-05-08 03:39 37.98188 -75.65110 34981 ft 519 kts 21°
2026-05-08 03:39 38.04188 -75.60094 34978 ft 519 kts 21°
2026-05-08 03:40 38.10202 -75.55047 34971 ft 519 kts 21°
2026-05-08 03:40 38.16232 -75.49979 34969 ft 519 kts 22°
2026-05-08 03:41 38.22250 -75.44919 34966 ft 518 kts 22°
2026-05-08 03:41 38.25325 -75.42606 34957 ft 505 kts 13°
2026-05-08 03:41 38.28513 -75.40934 34955 ft 488 kts
2026-05-08 03:41 38.31750 -75.39894 34955 ft 471 kts 355°
2026-05-08 03:42 38.34939 -75.39230 34950 ft 469 kts 355°
2026-05-08 03:42 38.41392 -75.37875 34948 ft 471 kts 355°
2026-05-08 03:43 38.47879 -75.36483 34947 ft 472 kts 355°
2026-05-08 03:43 38.54339 -75.35113 34949 ft 472 kts 355°
2026-05-08 03:44 38.60840 -75.33731 34951 ft 473 kts 356°
2026-05-08 03:44 38.67352 -75.32344 34951 ft 474 kts 356°
2026-05-08 03:45 38.73832 -75.30960 34955 ft 476 kts 357°
2026-05-08 03:45 38.77092 -75.29890 34954 ft 493 kts
2026-05-08 03:45 38.80282 -75.28050 34955 ft 510 kts 18°
2026-05-08 03:46 38.86500 -75.23607 34947 ft 512 kts 18°
2026-05-08 03:46 38.92744 -75.19151 34942 ft 512 kts 18°
2026-05-08 03:47 38.98988 -75.14719 34934 ft 514 kts 18°
2026-05-08 03:47 39.05248 -75.10253 34944 ft 514 kts 18°
2026-05-08 03:48 39.11471 -75.05801 34950 ft 515 kts 19°
2026-05-08 03:48 39.17741 -75.01303 34957 ft 515 kts 19°
2026-05-08 03:49 39.24007 -74.96805 34954 ft 516 kts 19°
2026-05-08 03:49 39.30091 -74.91689 34947 ft 525 kts 26°
2026-05-08 03:50 39.36056 -74.86254 34945 ft 525 kts 26°
2026-05-08 03:50 39.42045 -74.80789 34940 ft 526 kts 26°
2026-05-08 03:51 39.47990 -74.75360 34938 ft 526 kts 27°
2026-05-08 03:51 39.53989 -74.69874 34942 ft 527 kts 27°
2026-05-08 03:52 39.59981 -74.64373 34934 ft 527 kts 27°
2026-05-08 03:52 39.65963 -74.58869 34930 ft 527 kts 27°
2026-05-08 03:53 39.71950 -74.53349 34930 ft 528 kts 27°
2026-05-08 03:53 39.77909 -74.47845 34931 ft 528 kts 27°
2026-05-08 03:54 39.83904 -74.42301 34931 ft 529 kts 28°
2026-05-08 03:54 39.89912 -74.36729 34934 ft 529 kts 28°
2026-05-08 03:55 39.95914 -74.31164 34928 ft 530 kts 28°
2026-05-08 03:55 40.01916 -74.25573 34930 ft 530 kts 28°
2026-05-08 03:56 40.07917 -74.19948 34771 ft 530 kts 28°
2026-05-08 03:56 40.10878 -74.17176 34500 ft 529 kts 28°
2026-05-08 03:56 40.13874 -74.14372 34225 ft 529 kts 28°
2026-05-08 03:56 40.16874 -74.11563 33957 ft 530 kts 28°
2026-05-08 03:57 40.19880 -74.08748 33684 ft 530 kts 28°
2026-05-08 03:57 40.22875 -74.05939 33403 ft 531 kts 28°
2026-05-08 03:57 40.25879 -74.03113 33131 ft 531 kts 28°
2026-05-08 03:57 40.28872 -74.00289 32857 ft 531 kts 28°
2026-05-08 03:58 40.31862 -73.97462 32581 ft 531 kts 28°
2026-05-08 03:58 40.34926 -73.94773 32301 ft 522 kts 20°
2026-05-08 03:58 40.38111 -73.92722 32033 ft 516 kts 16°
2026-05-08 03:58 40.41333 -73.90751 31761 ft 517 kts 16°
2026-05-08 03:59 40.44594 -73.88749 31484 ft 518 kts 17°
2026-05-08 03:59 40.47857 -73.86738 31208 ft 518 kts 17°
2026-05-08 03:59 40.51119 -73.84715 30934 ft 518 kts 17°
2026-05-08 03:59 40.54381 -73.82686 30658 ft 518 kts 17°
2026-05-08 04:00 40.57645 -73.80654 30389 ft 522 kts 17°
2026-05-08 04:00 40.60959 -73.78471 30111 ft 543 kts 24°
2026-05-08 04:00 40.64093 -73.75584 29821 ft 555 kts 35°
2026-05-08 04:00 40.66837 -73.72016 29540 ft 551 kts 44°
2026-05-08 04:01 40.69370 -73.68269 29274 ft 546 kts 44°
2026-05-08 04:01 40.71896 -73.64542 29000 ft 544 kts 44°
2026-05-08 04:01 40.74396 -73.60869 28730 ft 544 kts 44°
2026-05-08 04:01 40.76915 -73.57182 28449 ft 537 kts 44°
2026-05-08 04:02 40.79389 -73.53558 28168 ft 527 kts 44°
2026-05-08 04:02 40.81823 -73.49983 27887 ft 516 kts 44°
2026-05-08 04:02 40.84203 -73.46476 27608 ft 507 kts 45°
2026-05-08 04:02 40.86538 -73.43031 27350 ft 498 kts 45°
2026-05-08 04:03 40.88802 -73.39693 27104 ft 489 kts 44°
2026-05-08 04:03 40.93275 -73.33106 26607 ft 474 kts 45°
2026-05-08 04:03 40.95462 -73.29881 26353 ft 468 kts 45°
2026-05-08 04:04 40.97622 -73.26683 26103 ft 465 kts 45°
2026-05-08 04:04 40.99773 -73.23492 25855 ft 463 kts 45°
2026-05-08 04:04 41.01911 -73.20313 25600 ft 461 kts 45°
2026-05-08 04:04 41.04040 -73.17148 25342 ft 460 kts 45°
2026-05-08 04:05 41.06167 -73.13986 25101 ft 458 kts 45°
2026-05-08 04:05 41.08282 -73.10841 24851 ft 456 kts 45°
2026-05-08 04:05 41.10387 -73.07701 24603 ft 455 kts 45°
2026-05-08 04:05 41.12486 -73.04574 24351 ft 452 kts 46°
2026-05-08 04:06 41.14572 -73.01454 24099 ft 450 kts 46°
2026-05-08 04:06 41.16625 -72.98380 23849 ft 449 kts 46°
2026-05-08 04:06 41.18690 -72.95287 23497 ft 446 kts 46°
2026-05-08 04:06 41.20679 -72.92128 23023 ft 446 kts 54°
2026-05-08 04:07 41.22269 -72.88623 22862 ft 441 kts 64°
2026-05-08 04:07 41.23655 -72.84987 22768 ft 440 kts 64°
2026-05-08 04:07 41.25042 -72.81370 22572 ft 439 kts 64°
2026-05-08 04:07 41.26433 -72.77751 22323 ft 438 kts 64°
2026-05-08 04:08 41.27812 -72.74155 22077 ft 435 kts 64°
2026-05-08 04:08 41.29181 -72.70573 21823 ft 434 kts 64°
2026-05-08 04:08 41.30524 -72.67054 21576 ft 432 kts 64°
2026-05-08 04:08 41.31883 -72.63484 21324 ft 430 kts 64°
2026-05-08 04:09 41.33232 -72.59941 21074 ft 428 kts 64°
2026-05-08 04:09 41.34574 -72.56412 20865 ft 426 kts 64°
2026-05-08 04:09 41.35906 -72.52897 20907 ft 426 kts 64°
2026-05-08 04:09 41.37244 -72.49364 20901 ft 426 kts 64°
2026-05-08 04:10 41.38579 -72.45829 20905 ft 427 kts 65°
2026-05-08 04:10 41.39910 -72.42300 20906 ft 426 kts 64°
2026-05-08 04:10 41.41231 -72.38807 20906 ft 426 kts 65°
2026-05-08 04:10 41.42562 -72.35274 20905 ft 426 kts 65°
2026-05-08 04:11 41.43889 -72.31733 20909 ft 427 kts 65°
2026-05-08 04:11 41.45217 -72.28192 20903 ft 427 kts 65°
2026-05-08 04:11 41.46546 -72.24648 20906 ft 427 kts 65°
2026-05-08 04:11 41.47875 -72.21103 20905 ft 427 kts 65°
2026-05-08 04:12 41.49200 -72.17548 20705 ft 427 kts 65°
2026-05-08 04:12 41.50495 -72.14037 20457 ft 426 kts 65°
2026-05-08 04:12 41.51790 -72.10494 20207 ft 424 kts 66°
2026-05-08 04:12 41.53075 -72.06960 19956 ft 422 kts 66°
2026-05-08 04:13 41.54357 -72.03436 19706 ft 421 kts 66°
2026-05-08 04:13 41.55635 -71.99920 19453 ft 419 kts 66°
2026-05-08 04:13 41.56831 -71.96370 19200 ft 418 kts 70°
2026-05-08 04:13 41.57929 -71.92791 18944 ft 415 kts 71°
2026-05-08 04:14 41.58954 -71.89259 18692 ft 413 kts 72°
2026-05-08 04:14 41.59971 -71.85670 18452 ft 411 kts 72°
2026-05-08 04:14 41.60639 -71.83309 18283 ft 410 kts 72°
2026-05-08 04:14 41.61087 -71.81803 18094 ft 413 kts 71°
2026-05-08 04:15 41.62152 -71.78271 17831 ft 408 kts 71°
2026-05-08 04:15 41.63186 -71.74748 17526 ft 406 kts 72°
2026-05-08 04:15 41.64207 -71.71226 17113 ft 404 kts 72°
2026-05-08 04:15 41.65204 -71.67775 16714 ft 401 kts 71°
2026-05-08 04:16 41.66205 -71.64308 16309 ft 399 kts 71°
2026-05-08 04:16 41.67207 -71.60863 15903 ft 395 kts 70°
2026-05-08 04:16 41.68208 -71.57446 15515 ft 392 kts 70°
2026-05-08 04:16 41.69194 -71.54090 15330 ft 383 kts 70°
2026-05-08 04:17 41.70161 -71.50794 14959 ft 379 kts 70°
2026-05-08 04:17 41.71118 -71.47520 14602 ft 376 kts 70°
2026-05-08 04:17 41.72053 -71.44319 14267 ft 372 kts 69°
2026-05-08 04:17 41.73203 -71.41243 13912 ft 368 kts 59°
2026-05-08 04:18 41.74474 -71.38288 13586 ft 363 kts 59°
2026-05-08 04:18 41.75725 -71.35373 13240 ft 359 kts 59°
2026-05-08 04:18 41.76945 -71.32522 12912 ft 355 kts 59°
2026-05-08 04:18 41.78161 -71.29666 12568 ft 352 kts 59°
2026-05-08 04:19 41.79369 -71.26830 12226 ft 348 kts 59°
2026-05-08 04:19 41.80563 -71.24026 11928 ft 343 kts 58°
2026-05-08 04:19 41.81729 -71.21288 11739 ft 334 kts 58°
2026-05-08 04:19 41.82880 -71.18607 11429 ft 330 kts 58°
2026-05-08 04:20 41.84042 -71.15971 11107 ft 326 kts 57°
2026-05-08 04:20 41.85204 -71.13369 10776 ft 323 kts 57°
2026-05-08 04:20 41.86354 -71.10798 10458 ft 320 kts 57°
2026-05-08 04:20 41.87487 -71.08262 10129 ft 315 kts 57°
2026-05-08 04:21 41.88605 -71.05752 9806 ft 312 kts 57°
2026-05-08 04:21 41.89341 -71.04099 9593 ft 310 kts 58°
2026-05-08 04:21 41.90428 -71.01643 9421 ft 301 kts 57°
2026-05-08 04:21 41.91485 -70.99249 9207 ft 295 kts 57°
2026-05-08 04:22 41.92875 -70.96152 8811 ft 291 kts 55°
2026-05-08 04:22 41.93984 -70.93906 8520 ft 287 kts 53°
2026-05-08 04:22 41.95121 -70.91713 8198 ft 285 kts 52°
2026-05-08 04:22 41.96260 -70.89548 7906 ft 282 kts 52°
2026-05-08 04:23 41.97020 -70.88096 7683 ft 281 kts 52°
2026-05-08 04:23 41.98132 -70.85961 7358 ft 278 kts 52°
2026-05-08 04:23 41.99211 -70.83872 7181 ft 271 kts 52°
2026-05-08 04:23 42.00280 -70.81801 7045 ft 263 kts 52°
2026-05-08 04:24 42.01378 -70.79944 6895 ft 252 kts 41°
2026-05-08 04:24 42.02612 -70.78319 6777 ft 247 kts 41°
2026-05-08 04:24 42.03834 -70.76701 6667 ft 247 kts 41°
2026-05-08 04:24 42.05050 -70.75091 6514 ft 242 kts 41°
2026-05-08 04:25 42.06252 -70.73510 6358 ft 244 kts 41°
2026-05-08 04:25 42.07458 -70.71905 6233 ft 245 kts 41°
2026-05-08 04:25 42.08659 -70.70283 6100 ft 245 kts 42°
2026-05-08 04:25 42.09854 -70.68650 5976 ft 244 kts 41°
2026-05-08 04:26 42.11223 -70.67373 5710 ft 236 kts 17°
2026-05-08 04:26 42.12803 -70.66972 5461 ft 230 kts
2026-05-08 04:26 42.14402 -70.66807 5209 ft 230 kts
2026-05-08 04:26 42.15991 -70.66641 4957 ft 229 kts
2026-05-08 04:27 42.17572 -70.66505 4704 ft 226 kts 355°
2026-05-08 04:27 42.19102 -70.66844 4456 ft 222 kts 339°
2026-05-08 04:27 42.20471 -70.67758 4205 ft 219 kts 323°
2026-05-08 04:27 42.21646 -70.69048 3956 ft 217 kts 319°
2026-05-08 04:28 42.22804 -70.70356 3705 ft 217 kts 319°
2026-05-08 04:28 42.23956 -70.71650 3484 ft 215 kts 320°
2026-05-08 04:28 42.25102 -70.72936 3227 ft 214 kts 320°
2026-05-08 04:28 42.26242 -70.74216 2972 ft 212 kts 320°
2026-05-08 04:29 42.27358 -70.75474 2713 ft 206 kts 320°
2026-05-08 04:29 42.28449 -70.76703 2458 ft 203 kts 320°
2026-05-08 04:29 42.29537 -70.77930 2263 ft 203 kts 319°
2026-05-08 04:29 42.30624 -70.79156 2140 ft 204 kts 319°
2026-05-08 04:30 42.31640 -70.80452 2070 ft 203 kts 308°
2026-05-08 04:30 42.32329 -70.82110 1999 ft 202 kts 292°
2026-05-08 04:30 42.32830 -70.83824 1997 ft 189 kts 292°
2026-05-08 04:30 42.33188 -70.85521 2000 ft 185 kts 278°
2026-05-08 04:31 42.33140 -70.87219 1996 ft 179 kts 266°
2026-05-08 04:31 42.33003 -70.88809 1747 ft 162 kts 266°
2026-05-08 04:31 42.32881 -70.90262 1546 ft 148 kts 266°
2026-05-08 04:31 42.32768 -70.91608 1350 ft 141 kts 267°
2026-05-08 04:32 42.32661 -70.92918 1156 ft 139 kts 266°
2026-05-08 04:32 42.32629 -70.94208 1002 ft 137 kts 278°
2026-05-08 04:32 42.32904 -70.95432 841 ft 137 kts 296°
2026-05-08 04:32 42.33464 -70.96472 677 ft 137 kts 313°
2026-05-08 04:33 42.34147 -70.97365 494 ft 136 kts 313°
2026-05-08 04:33 42.34808 -70.98285 251 ft 135 kts 312°
2026-05-08 04:33 42.35489 -70.99198 77 ft 140 kts 314°
2026-05-08 04:33 42.36148 -71.00085 23 ft 120 kts 314°
2026-05-08 04:34 42.36542 -71.00608 25 ft 36 kts 315°
2026-05-08 04:34 42.36651 -71.00769 26 ft 16 kts 292°
2026-05-08 04:34 42.36589 -71.00860 26 ft 7 kts 199°
2026-05-08 04:34 42.36573 -71.00867 26 ft 0 kts 200°
2026-05-08 04:35 42.36565 -71.00871 26 ft 2 kts 200°
2026-05-08 04:35 42.36545 -71.00881 26 ft 5 kts 200°
2026-05-08 04:35 42.36509 -71.00901 26 ft 6 kts 214°
2026-05-08 04:35 42.36495 -71.00959 26 ft 7 kts 273°
2026-05-08 04:36 42.36515 -71.01040 26 ft 11 kts 292°
2026-05-08 04:36 42.36546 -71.01144 26 ft 13 kts 292°
2026-05-08 04:36 42.36572 -71.01230 26 ft 9 kts 292°
2026-05-08 04:36 42.36567 -71.01298 26 ft 8 kts 228°
2026-05-08 04:37 42.36536 -71.01322 26 ft 1 kts 207°
2026-05-08 04:37 42.36527 -71.01329 26 ft 2 kts 207°
2026-05-08 04:37 42.36507 -71.01343 26 ft 4 kts 207°
2026-05-08 04:37 42.36479 -71.01365 26 ft 5 kts 219°
2026-05-08 04:38 42.36477 -71.01410 26 ft 6 kts 304°
2026-05-08 04:38 42.36497 -71.01432 26 ft 1 kts 323°
2026-05-08 04:38 42.36505 -71.01441 26 ft 1 kts 323°
2026-05-08 04:38 42.36506 -71.01441 26 ft 0 kts 323°